Weather History for Wellsville, NY

Change the Weather History Date:

Saturday, August 24, 2013

  Actual Average (KBFD) Record (KBFD)
Temperature  
Mean Temperature 58 °F 63 °F  
Max Temperature 75 °F 75 °F 84 °F (1972)
Min Temperature 44 °F 51 °F 33 °F (1971)
Degree Days  
Heating Degree Days 6 1  
Month to date heating degree days 16  
Since 1 June heating degree days 225  
Since 1 July heating degree days 80  
Cooling Degree Days 0 1  
Month to date cooling degree days 45  
Year to date cooling degree days 169  
Since 1 June cooling degree days 159  
Growing Degree Days 8 (Base 50)    
Moisture  
Dew Point 48 °F    
Average Humidity 83    
Maximum Humidity 100    
Minimum Humidity 40    
Precipitation  
Precipitation 0.00 in 0.13 in 1.31 in (1968)
Month to date precipitation 3.22  
Year to date precipitation 29.06  
Sea Level Pressure  
Sea Level Pressure 30.34 in    
Wind  
Wind Speed 0 mph (ENE)    
Max Wind Speed 5 mph    
Max Gust Speed -    
Visibility 4 miles    
Events Fog    
T = Trace of Precipitation, MM = Missing Value Source: NWS Daily Summary

Daily Weather History Graph

Daily Weather History Graph

Search for Another Location

Airport:

Trip Planner

Search our weather history database for the weather conditions in past years. The results will help you decide how hot, cold, wet, or windy it might be!

Date:

Astronomy

Aug. 24, 2013 Rise Set
Actual Time 6:29 AM EDT 7:58 PM EDT
Civil Twilight 5:59 AM EDT 8:27 PM EDT
Nautical Twilight 5:24 AM EDT 9:02 PM EDT
Astronomical Twilight 4:46 AM EDT 9:40 PM EDT
Moon 9:45 PM EDT (8/24) 10:32 AM EDT (8/24)
Length of Visible Light 14h 27m
Length of Day
13h 29m
Waning Gibbous, 84% of the Moon is Illuminated
Aug 24
Waning Gibbous
Aug 28
Last Quarter
Sep 5
New
Sep 12
First Quarter
Sep 19
Full

Hourly Weather History & Observations

Time (EDT) Temp. Dew Point Humidity Pressure Visibility Wind Dir Wind Speed Gust Speed Precip Events Conditions
12:56 AM 53.1 °F 48.9 °F 86% 30.26 in 10.0 mi Calm Calm - N/A   Clear
1:56 AM 51.1 °F 48.9 °F 92% 30.26 in 10.0 mi Calm Calm - N/A   Clear
2:07 AM 50.0 °F 48.2 °F 94% 30.27 in 1.8 mi Calm Calm - N/A   Clear
2:17 AM 50.0 °F 48.2 °F 94% 30.27 in 0.5 mi Calm Calm - N/A Fog Fog
2:26 AM 50.0 °F 48.2 °F 94% 30.27 in 0.2 mi Calm Calm - N/A Fog Fog
2:49 AM 48.2 °F 48.2 °F 100% 30.28 in 0.5 mi Calm Calm - N/A Fog Fog
2:56 AM 50.0 °F 48.0 °F 93% 30.27 in 0.5 mi Calm Calm - N/A Fog Fog
3:14 AM 50.0 °F 48.2 °F 94% 30.28 in 1.0 mi Calm Calm - N/A   Clear
3:18 AM 50.0 °F 48.2 °F 94% 30.28 in 0.8 mi Calm Calm - N/A   Mist
3:32 AM 48.2 °F 46.4 °F 93% 30.29 in 0.2 mi Calm Calm - N/A Fog Fog
3:56 AM 48.9 °F 46.9 °F 93% 30.29 in 0.5 mi Calm Calm - N/A Fog Fog
4:04 AM 48.2 °F 46.4 °F 93% 30.30 in 0.2 mi Calm Calm - N/A Fog Fog
4:22 AM 46.4 °F 46.4 °F 100% 30.30 in 0.5 mi Calm Calm - N/A Fog Fog
4:30 AM 46.4 °F 46.4 °F 100% 30.30 in 0.2 mi Calm Calm - N/A Fog Fog
4:56 AM 46.9 °F 46.0 °F 97% 30.31 in 0.5 mi Calm Calm - N/A Fog Fog
5:26 AM 48.2 °F 46.4 °F 93% 30.32 in 0.2 mi Calm Calm - N/A Fog Fog
5:36 AM 46.4 °F 44.6 °F 93% 30.32 in 1.2 mi Calm Calm - N/A   Mostly Cloudy
5:47 AM 46.4 °F 44.6 °F 93% 30.32 in 0.5 mi Calm Calm - N/A Fog Fog
5:54 AM 44.6 °F 44.6 °F 100% 30.33 in 0.2 mi Calm Calm - N/A Fog Fog
5:56 AM 45.0 °F 44.1 °F 97% 30.33 in 0.2 mi Calm Calm - N/A Fog Fog
6:26 AM 46.4 °F 44.6 °F 93% 30.34 in 0.5 mi Calm Calm - N/A Fog Fog
6:33 AM 46.4 °F 44.6 °F 93% 30.34 in 0.2 mi Calm Calm - N/A Fog Fog
6:56 AM 46.0 °F 45.0 °F 96% 30.35 in 0.2 mi Calm Calm - N/A Fog Fog
7:05 AM 46.4 °F 44.6 °F 93% 30.35 in 0.5 mi Calm Calm - N/A Fog Fog
7:22 AM 44.6 °F 44.6 °F 100% 30.35 in 0.2 mi Calm Calm - N/A Fog Fog
7:52 AM 48.2 °F 48.2 °F 100% 30.36 in 0.5 mi Calm Calm - N/A Fog Fog
7:56 AM 48.9 °F 48.0 °F 97% 30.37 in 0.5 mi Calm Calm - N/A Fog Fog
8:04 AM 48.2 °F 48.2 °F 100% 30.36 in 0.2 mi Calm Calm - N/A Fog Fog
8:25 AM 51.8 °F 51.8 °F 100% 30.37 in 1.0 mi Calm Calm - N/A   Mist
8:30 AM 51.8 °F 51.8 °F 100% 30.37 in 0.2 mi Calm Calm - N/A Fog Fog
8:41 AM 53.6 °F 51.8 °F 94% 30.38 in 1.0 mi Calm Calm - N/A   Mist
8:45 AM 51.8 °F 51.8 °F 100% 30.38 in 4.0 mi Calm Calm - N/A   Mostly Cloudy
8:56 AM 54.0 °F 53.1 °F 97% 30.38 in 10.0 mi Calm Calm - N/A   Scattered Clouds
9:56 AM 60.1 °F 52.0 °F 75% 30.38 in 10.0 mi SE 4.6 mph - N/A   Clear
10:56 AM 64.9 °F 51.1 °F 61% 30.39 in 10.0 mi Variable 4.6 mph - N/A   Clear
11:56 AM 69.1 °F 51.1 °F 53% 30.38 in 10.0 mi Variable 4.6 mph - N/A   Clear
12:56 PM 70.0 °F 48.9 °F 47% 30.37 in 10.0 mi Variable 3.5 mph - N/A   Clear
1:56 PM 70.0 °F 46.0 °F 42% 30.37 in 10.0 mi Calm Calm - N/A   Clear
2:56 PM 72.0 °F 46.9 °F 41% 30.36 in 10.0 mi NNW 4.6 mph - N/A   Clear
3:56 PM 72.0 °F 46.0 °F 40% 30.35 in 10.0 mi Calm Calm - N/A   Clear
4:56 PM 73.0 °F 48.0 °F 41% 30.35 in 10.0 mi Calm Calm - N/A   Clear
5:56 PM 73.0 °F 51.1 °F 46% 30.36 in 10.0 mi North 3.5 mph - N/A   Clear
6:56 PM 70.0 °F 51.1 °F 51% 30.37 in 10.0 mi NNW 3.5 mph - N/A   Clear
7:56 PM 66.0 °F 48.9 °F 54% 30.37 in 10.0 mi NE 3.5 mph - N/A   Clear
8:56 PM 63.0 °F 50.0 °F 63% 30.38 in 10.0 mi East 3.5 mph - N/A   Clear
9:56 PM 59.0 °F 51.1 °F 75% 30.40 in 10.0 mi Calm Calm - N/A   Clear
10:56 PM 59.0 °F 50.0 °F 72% 30.38 in 10.0 mi ESE 3.5 mph - N/A   Clear
11:56 PM 55.9 °F 50.0 °F 80% 30.38 in 10.0 mi SE 3.5 mph - N/A   Clear